When you browse on this site, cookies collect data to enhance your experience and personalize the content and advertising you see.
Visit our Privacy Policy to learn more. By continuing to use the site, you agree to this use of cookies and data.

Hourly Weather San Clemente

Today, 3 July, Friday

Time Temperature Precipitation Wind Pressure Humidity
00:00 +8°C° 0 mm 0 mps 743 mmHg 91%
01:00 +8°C° 0 mm 0 mps 743 mmHg 93%
02:00 +10°C° 0.1 mm 1 mps 743 mmHg 91%
03:00 +9°C° 0.1 mm 2 mps 742 mmHg 90%
04:00 +9°C° 0.1 mm 2 mps 742 mmHg 88%
05:00 +9°C° 0.3 mm 3 mps 742 mmHg 89%
06:00 +9°C° 0.3 mm 3 mps 741 mmHg 89%
07:00 +9°C° 0.3 mm 3 mps 741 mmHg 89%
08:00 +9°C° 2 mm 3 mps 741 mmHg 91%
09:00 +9°C° 2 mm 2 mps 741 mmHg 93%
10:00 +10°C° 2 mm 1 mps 741 mmHg 94%
11:00 +9°C° 1.4 mm 2 mps 741 mmHg 95%
12:00 +9°C° 1.4 mm 2 mps 740 mmHg 95%
13:00 +9°C° 1.4 mm 2 mps 740 mmHg 95%
14:00 +9°C° 1.6 mm 2 mps 740 mmHg 96%
15:00 +9°C° 1.6 mm 2 mps 740 mmHg 97%
16:00 +9°C° 1.6 mm 2 mps 740 mmHg 97%
17:00 +10°C° 1.2 mm 2 mps 740 mmHg 98%
18:00 +11°C° 1.2 mm 1 mps 740 mmHg 98%
19:00 +11°C° 1.2 mm 1 mps 740 mmHg 98%
20:00 +10°C° 0.5 mm 1 mps 740 mmHg 97%
21:00 +10°C° 0.5 mm 1 mps 740 mmHg 97%
22:00 +9°C° 0.5 mm 0 mps 740 mmHg 96%
23:00 +8°C° 0.1 mm 0 mps 740 mmHg 96%

Tomorrow, 4 July, Saturday

Time Temperature Precipitation Wind Pressure Humidity
00:00 +8°C° 0.1 mm 0 mps 740 mmHg 95%
01:00 +7°C° 0.1 mm 0 mps 740 mmHg 94%
02:00 +7°C° 0.1 mm 0 mps 740 mmHg 93%
03:00 +8°C° 0.1 mm 1 mps 740 mmHg 92%
04:00 +7°C° 0.1 mm 1 mps 740 mmHg 92%
05:00 +7°C° 0.1 mm 1 mps 740 mmHg 91%
06:00 +7°C° 0.1 mm 1 mps 740 mmHg 90%
07:00 +7°C° 0.1 mm 1 mps 741 mmHg 90%
08:00 +8°C° 0.2 mm 1 mps 741 mmHg 86%
09:00 +10°C° 0.2 mm 1 mps 741 mmHg 82%
10:00 +10°C° 0.2 mm 2 mps 741 mmHg 78%
11:00 +12°C° 0.2 mm 2 mps 741 mmHg 75%
12:00 +12°C° 0.2 mm 2 mps 741 mmHg 73%
13:00 +13°C° 0.2 mm 2 mps 741 mmHg 70%
14:00 +12°C° 0.6 mm 2 mps 741 mmHg 75%
15:00 +10°C° 0.6 mm 2 mps 741 mmHg 80%
16:00 +9°C° 0.6 mm 2 mps 741 mmHg 85%
17:00 +9°C° 1.7 mm 2 mps 742 mmHg 89%
18:00 +8°C° 1.7 mm 3 mps 742 mmHg 92%
19:00 +7°C° 1.7 mm 3 mps 743 mmHg 95%
20:00 +7°C° 2.7 mm 3 mps 743 mmHg 94%
21:00 +7°C° 2.7 mm 3 mps 744 mmHg 94%
22:00 +5°C° 2.7 mm 3 mps 744 mmHg 94%
23:00 +5°C° 0.3 mm 3 mps 744 mmHg 93%

Day after tomorrow, 5 July, Sunday

Time Temperature Precipitation Wind Pressure Humidity
00:00 +5°C° 0.3 mm 3 mps 744 mmHg 92%
01:00 +5°C° 0.3 mm 3 mps 744 mmHg 91%
02:00 +5°C° 0.1 mm 3 mps 745 mmHg 91%
03:00 +5°C° 0.1 mm 3 mps 745 mmHg 90%
04:00 +5°C° 0.1 mm 3 mps 745 mmHg 89%
05:00 +5°C° 0 mm 3 mps 745 mmHg 88%
06:00 +6°C° 0 mm 2 mps 746 mmHg 87%
07:00 +6°C° 0 mm 2 mps 746 mmHg 86%
08:00 +7°C° 0 mm 2 mps 746 mmHg 82%
09:00 +9°C° 0 mm 2 mps 746 mmHg 78%
10:00 +10°C° 0 mm 2 mps 746 mmHg 73%
11:00 +12°C° 0 mm 2 mps 745 mmHg 71%
12:00 +13°C° 0 mm 2 mps 745 mmHg 68%
13:00 +13°C° 0 mm 2 mps 744 mmHg 65%
14:00 +13°C° 0 mm 2 mps 744 mmHg 70%
15:00 +12°C° 0 mm 1 mps 744 mmHg 74%
16:00 +12°C° 0 mm 1 mps 745 mmHg 78%
17:00 +11°C° 0 mm 1 mps 745 mmHg 79%
18:00 +9°C° 0 mm 1 mps 745 mmHg 80%
19:00 +8°C° 0 mm 1 mps 745 mmHg 81%
20:00 +8°C° 0 mm 1 mps 745 mmHg 80%
21:00 +8°C° 0 mm 1 mps 744 mmHg 78%
22:00 +8°C° 0 mm 1 mps 744 mmHg 77%
23:00 +8°C° 0 mm 1 mps 744 mmHg 77%

6 July, Monday

Time Temperature Precipitation Wind Pressure Humidity
00:00 +7°C° 0 mm 0 mps 744 mmHg 76%
01:00 +7°C° 0 mm 0 mps 743 mmHg 76%
02:00 +7°C° 0 mm 0 mps 743 mmHg 77%
03:00 +7°C° 0 mm 0 mps 743 mmHg 78%
04:00 +7°C° 0 mm 0 mps 743 mmHg 80%
05:00 +7°C° 0 mm 0 mps 743 mmHg 80%
06:00 +7°C° 0 mm 0 mps 743 mmHg 81%
07:00 +8°C° 0 mm 1 mps 743 mmHg 81%
08:00 +9°C° 0.1 mm 1 mps 743 mmHg 80%
09:00 +10°C° 0.1 mm 1 mps 744 mmHg 80%
10:00 +10°C° 0.1 mm 1 mps 744 mmHg 79%
11:00 +11°C° 0.3 mm 1 mps 743 mmHg 78%
12:00 +11°C° 0.3 mm 1 mps 743 mmHg 76%
13:00 +12°C° 0.3 mm 2 mps 743 mmHg 75%
14:00 +10°C° 0.5 mm 2 mps 743 mmHg 79%
15:00 +9°C° 0.5 mm 2 mps 743 mmHg 83%
16:00 +8°C° 0.5 mm 2 mps 743 mmHg 87%
17:00 +8°C° 0.1 mm 2 mps 744 mmHg 87%
18:00 +7°C° 0.1 mm 2 mps 744 mmHg 88%
19:00 +8°C° 0.1 mm 1 mps 744 mmHg 88%
20:00 +8°C° 0 mm 1 mps 744 mmHg 87%
21:00 +8°C° 0 mm 1 mps 744 mmHg 87%
22:00 +8°C° 0 mm 1 mps 745 mmHg 86%
23:00 +8°C° 0 mm 1 mps 744 mmHg 86%

7 July, Tuesday

Time Temperature Precipitation Wind Pressure Humidity
00:00 +8°C° 0 mm 1 mps 744 mmHg 86%
01:00 +7°C° 0 mm 1 mps 744 mmHg 86%
02:00 +6°C° 0 mm 0 mps 744 mmHg 86%
03:00 +6°C° 0 mm 0 mps 744 mmHg 86%
04:00 +6°C° 0 mm 0 mps 744 mmHg 85%
05:00 +6°C° 0 mm 0 mps 745 mmHg 85%
06:00 +8°C° 0 mm 1 mps 745 mmHg 84%
07:00 +8°C° 0 mm 1 mps 745 mmHg 84%
08:00 +9°C° 0 mm 1 mps 745 mmHg 82%
09:00 +10°C° 0 mm 1 mps 746 mmHg 81%
10:00 +11°C° 0 mm 1 mps 746 mmHg 79%
11:00 +11°C° 0 mm 1 mps 745 mmHg 79%
12:00 +11°C° 0 mm 1 mps 745 mmHg 79%
13:00 +12°C° 0 mm 1 mps 745 mmHg 79%
14:00 +11°C° 0.1 mm 1 mps 745 mmHg 81%
15:00 +11°C° 0.1 mm 1 mps 746 mmHg 82%
16:00 +11°C° 0.1 mm 1 mps 746 mmHg 84%
17:00 +10°C° 0.1 mm 1 mps 746 mmHg 85%
18:00 +9°C° 0.1 mm 1 mps 747 mmHg 86%
19:00 +9°C° 0.1 mm 1 mps 747 mmHg 87%
20:00 +9°C° 0.1 mm 1 mps 747 mmHg 87%
21:00 +9°C° 0.1 mm 1 mps 748 mmHg 88%
22:00 +9°C° 0.1 mm 1 mps 748 mmHg 89%
23:00 +9°C° 0.1 mm 1 mps 748 mmHg 89%

8 July, Wednesday

Time Temperature Precipitation Wind Pressure Humidity
00:00 +9°C° 0.1 mm 1 mps 748 mmHg 89%
01:00 +9°C° 0.1 mm 1 mps 748 mmHg 89%
02:00 +9°C° 0 mm 1 mps 748 mmHg 88%
03:00 +8°C° 0 mm 2 mps 748 mmHg 87%
04:00 +7°C° 0 mm 2 mps 748 mmHg 86%
05:00 +8°C° 0 mm 1 mps 748 mmHg 86%
06:00 +8°C° 0 mm 1 mps 748 mmHg 85%
07:00 +8°C° 0 mm 1 mps 748 mmHg 85%
08:00 +9°C° 0 mm 1 mps 748 mmHg 82%
09:00 +9°C° 0 mm 0 mps 748 mmHg 79%
10:00 +11°C° 0 mm 0 mps 748 mmHg 76%
11:00 +11°C° 0 mm 0 mps 747 mmHg 75%
12:00 +13°C° 0 mm 1 mps 747 mmHg 74%
13:00 +13°C° 0 mm 1 mps 747 mmHg 73%
14:00 +13°C° 0 mm 1 mps 747 mmHg 76%
15:00 +12°C° 0 mm 1 mps 747 mmHg 80%
16:00 +12°C° 0 mm 1 mps 747 mmHg 83%
17:00 +11°C° 0.1 mm 1 mps 747 mmHg 84%
18:00 +10°C° 0.1 mm 2 mps 747 mmHg 85%
19:00 +9°C° 0.1 mm 2 mps 748 mmHg 86%
20:00 +9°C° 0.5 mm 2 mps 748 mmHg 87%
21:00 +9°C° 0.5 mm 2 mps 748 mmHg 88%
22:00 +9°C° 0.5 mm 2 mps 748 mmHg 89%
23:00 +9°C° 1.3 mm 3 mps 748 mmHg 89%
Show more